DW4273 Weather Reports


Display with metric or nautical units.
time (UTC)temp
F
wind
direction
speed
MPH
gust
MPH
rain 1hr
in
rain 24hr
in
rain mn
in
humidity
%
barometer
mb
20260506093016 45 0.0 5.0 0.02 0.94 0.22 94 1005.2
20260506092016 45 0.0 4.0 0.02 0.94 0.22 94 1005.6
20260506091016 45 0.0 5.0 0.02 0.93 0.21 94 1005.6
20260506090017 45 0.0 2.0 0.02 0.93 0.21 94 1005.4
20260506085016 45 0.0 0.0 0.01 0.92 0.20 95 1005.3
20260506084016 45 0.0 2.0 0.02 0.92 0.20 95 1005.3
20260506083016 45 0.0 0.0 0.03 0.92 0.20 95 1005.2
20260506082016 45 0.0 0.0 0.04 0.92 0.20 94 1005.2
20260506081056 45 0.0 1.0 0.04 0.91 0.19 94 1005.2
20260506073016 45 0.0 1.0 0.07 0.89 0.17 94 1005.3
20260506072016 45 0.0 0.0 0.07 0.88 0.16 94 1005.3
20260506071017 45 0.0 2.0 0.06 0.87 0.15 94 1005.0
20260506062517 45 0.0 1.0 0.04 0.81 0.09 94 1005.0
20260506061537 45 0.0 1.0 0.06 0.81 0.09 94 1005.0
20260506060517 45 0.0 0.0 0.06 0.81 0.09 94 1005.2
20260506050517 46 0.0 3.0 0.03 0.75 0.03 94 1005.4
20260506044517 47 45 3.0 7.0 0.04 0.74 0.02 94 1005.3
20260506043546 48 45 3.0 8.0 0.03 0.73 0.01 94 1005.4
20260506042516 48 0.0 1.0 0.04 0.73 0.01 94 1005.5
20260506041543 48 0.0 0.0 0.05 0.73 0.01 94 1005.6
20260506040516 48 0.0 3.0 0.05 0.72 0.00 94 1005.7
20260506035516 48 0.0 3.0 0.04 0.71 0.71 94 1005.8
20260506034517 49 0.0 2.0 0.04 0.70 0.70 94 1005.9
20260506033516 49 0.0 0.0 0.04 0.70 0.70 94 1006.0
20260506032536 49 0.0 0.0 0.04 0.69 0.69 94 1006.2
20260506031516 49 0.0 1.0 0.04 0.68 0.68 94 1006.3
20260506030517 49 0.0 0.0 0.05 0.67 0.67 94 1006.3
20260506025617 49 0.0 1.0 0.06 0.67 0.67 94 1006.2
20260506024516 49 0.0 0.0 0.06 0.66 0.66 94 1006.3
20260506023516 49 0.0 0.0 0.08 0.66 0.66 94 1006.4
20260506022516 49 0.0 0.0 0.10 0.65 0.65 94 1006.3
20260506021516 49 0.0 1.0 0.12 0.64 0.64 94 1006.2
20260506020516 49 0.0 1.0 0.14 0.62 0.62 94 1005.8
20260506015516 49 0.0 0.0 0.16 0.61 0.61 94 1005.7
20260506014536 49 0 1.0 5.0 0.19 0.60 0.60 93 1005.4
20260506013516 49 0 1.0 5.0 0.23 0.58 0.58 93 1005.3
20260506012516 50 0 2.0 7.0 0.22 0.55 0.55 93 1005.1
20260506011516 50 0 1.0 6.0 0.21 0.52 0.52 93 1005.3
20260506010516 51 338 2.0 7.0 0.19 0.48 0.48 93 1005.2
20260506005536 51 0.0 2.0 0.18 0.45 0.45 93 1005.1
20260506004536 51 45 3.0 7.0 0.15 0.41 0.41 93 1005.2
20260506003536 51 293 1.0 6.0 0.09 0.35 0.35 93 1005.1
20260506002536 51 0.0 1.0 0.07 0.33 0.33 93 1004.4
20260506001516 51 0.0 0.0 0.06 0.31 0.31 92 1004.6
20260506000516 51 0.0 0.0 0.05 0.29 0.29 92 1004.8
20260505235536 51 0.0 1.0 0.04 0.27 0.27 92 1004.5
20260505234516 51 0.0 1.0 0.05 0.26 0.26 91 1004.7
20260505233516 51 0 2.0 7.0 0.08 0.26 0.26 91 1004.8
20260505232516 52 315 2.0 7.0 0.12 0.26 0.26 90 1004.8
20260505231516 53 0 3.0 12.0 0.16 0.25 0.25 90 1004.7
20260505230516 56 0 3.0 11.0 0.16 0.24 0.24 89 1004.9
20260505225516 57 0.0 3.0 0.15 0.23 0.23 91 1005.1
20260505224516 57 0.0 0.0 0.13 0.21 0.21 91 1005.2
20260505223516 57 0.0 5.0 0.10 0.18 0.18 90 1005.2
20260505222536 58 248 2.0 6.0 0.06 0.14 0.14 90 1005.3
20260505221516 58 0.0 4.0 0.01 0.09 0.09 90 1004.9
20260505220536 58 0.0 2.0 0.00 0.08 0.08 90 1004.5
20260505215516 58 0.0 1.0 0.00 0.08 0.08 90 1004.6
20260505214517 58 0.0 3.0 0.00 0.08 0.08 90 1004.6
20260505213536 58 0.0 0.0 0.02 0.08 0.08 89 1004.8
20260505212516 58 0.0 0.0 0.03 0.08 0.08 89 1004.7
20260505211557 58 0.0 2.0 0.03 0.08 0.08 89 1004.8
20260505210516 58 0.0 1.0 0.04 0.08 0.08 89 1004.8
20260505205516 59 0.0 5.0 0.06 0.08 0.08 88 1004.8
20260505204516 59 0.0 3.0 0.06 0.08 0.08 88 1005.1
20260505203517 59 248 3.0 7.0 0.04 0.06 0.06 87 1005.2
20260505202536 60 0.0 4.0 0.03 0.05 0.05 86 1005.1
20260505201516 60 0.0 2.0 0.04 0.05 0.05 86 1004.9
20260505200516 60 0.0 0.0 0.03 0.04 0.04 85 1005.1
20260505195537 60 293 1.0 3.0 0.01 0.02 0.02 84 1005.1
20260505194544 60 315 1.0 5.0 0.01 0.02 0.02 82 1005.1
20260505193516 62 293 2.0 6.0 0.01 0.02 0.02 81 1005.1
20260505192516 63 270 1.0 4.0 0.01 0.02 0.02 79 1005.1
20260505191516 63 270 1.0 5.0 0.00 0.01 0.01 77 1005.1
20260505190517 64 248 3.0 9.0 0.00 0.01 0.01 75 1005.0
20260505185517 64 270 4.0 9.0 0.00 0.01 0.01 73 1005.1
20260505184516 64 248 4.0 8.0 0.00 0.01 0.01 74 1005.2
20260505183516 64 225 5.0 9.0 0.00 0.01 0.01 74 1005.3
20260505182516 64 225 6.0 9.0 0.00 0.01 0.01 73 1005.4
20260505181537 64 248 6.0 14.0 0.00 0.01 0.01 73 1005.4
20260505180517 64 248 6.0 11.0 0.00 0.01 0.01 72 1005.3
20260505175536 64 248 9.0 13.0 0.00 0.01 0.01 72 1005.3
20260505174516 64 248 10.0 17.0 0.00 0.01 0.01 72 1005.2
20260505173517 64 248 11.0 17.0 0.00 0.01 0.01 72 1005.3
20260505172536 65 248 10.0 17.0 0.00 0.01 0.01 71 1005.3
20260505171516 65 248 11.0 16.0 0.00 0.01 0.01 70 1005.4
20260505170517 65 248 10.0 16.0 0.00 0.01 0.01 70 1005.3
20260505165516 65 248 13.0 19.0 0.00 0.01 0.01 69 1005.3
20260505164517 65 248 12.0 18.0 0.00 0.01 0.01 68 1005.3
20260505163517 65 248 11.0 17.0 0.00 0.01 0.01 68 1005.2
20260505162516 65 248 10.0 15.0 0.00 0.01 0.01 68 1005.1
20260505161536 66 248 10.0 15.0 0.00 0.01 0.01 66 1005.3
20260505160537 67 248 10.0 15.0 0.00 0.01 0.01 65 1005.2
20260505152517 67 225 11.0 17.0 0.00 0.01 0.01 64 1004.2
20260505151516 67 225 13.0 18.0 0.00 0.01 0.01 64 1004.2
20260505150557 67 225 10.0 16.0 0.00 0.01 0.01 64 1004.1
20260505140516 64 225 13.0 18.0 0.00 0.01 0.01 69 1004.1
20260505125016 60 203 6.0 11.0 0.00 0.01 0.01 79 1004.0
20260505124017 59 203 7.0 12.0 0.00 0.01 0.01 79 1003.8
20260505123017 59 203 6.0 14.0 0.00 0.01 0.01 79 1003.9
20260505122016 59 203 9.0 14.0 0.00 0.01 0.01 79 1003.9
20260505121017 59 225 8.0 12.0 0.01 0.01 0.01 80 1003.8
20260505120017 59 203 4.0 11.0 0.01 0.01 0.01 81 1003.4
20260505115037 58 225 7.0 15.0 0.01 0.01 0.01 82 1002.9
20260505114016 58 180 9.0 15.0 0.01 0.01 0.01 83 1002.1
20260505113016 58 180 9.0 16.0 0.01 0.01 0.01 82 1002.4
20260505112016 58 203 12.0 19.0 0.01 0.01 0.01 81 1002.7
20260505111037 59 203 12.0 21.0 0.00 0.00 0.00 78 1002.8
20260505102017 62 203 7.0 14.0 0.00 0.00 0.00 68 1002.9
20260505101017 63 225 7.0 14.0 0.00 0.00 0.00 68 1002.8
20260505100017 63 225 9.0 16.0 0.00 0.00 0.00 68 1002.8
20260505095016 63 225 8.0 13.0 0.00 0.00 0.00 67 1002.8
20260505094017 63 225 8.0 12.0 0.00 0.00 0.00 67 1002.8